Regional Weather Roundup
Issued by NWS

Home | Current Version | Previous Version | Text Only | Print | Product List | Glossary Off
Versions: 1 2 3 4 5 6 7 8 9 10 11 12 13 14 15 16 17 18 19 20 21 22 23 24 25 26 27 28 29 30 31 32 33 34 35 36 37 38 39 40 41 42 43 44 45 46 47 48 49 50

000
ASUS45 KBOU 180907
RWRCO

WEATHER ROUNDUP FOR COLORADO
NATIONAL WEATHER SERVICE DENVER/BOULDER CO
300 AM MDT THU SEP 18 2014

NOTE: "FAIR" INDICATES FEW OR NO CLOUDS BELOW 12000 FEET WITH NO
SIGNIFICANT WEATHER AND/OR OBSTRUCTIONS TO VISIBILITY.

COZ001>005-013-030-031-181000-
...NORTHWEST COLORADO...

CITY           SKY/WX    TMP DP  RH WIND       PRES   REMARKS
CRAIG          CLEAR     43  38  82 CALM      30.12F
HAYDEN         CLEAR     52  36  54 E12       30.14F
MEEKER         CLEAR     47  38  71 NE5       30.14S
MOUNT WERNER   NOT AVBL
STEAMBOAT SPGS CLEAR     47  39  72 CALM      30.17F
WALDEN         CLEAR     36  32  87 SE5       30.27F
$$

COZ006>008-011-181000-
...WEST CENTRAL VALLEYS...

CITY           SKY/WX    TMP DP  RH WIND       PRES   REMARKS
GRAND JUNCTION CLEAR     64  41  42 SE8       30.01F
MONTROSE       CLEAR     58  43  57 SE7       30.11S
EAGLE          CLEAR     46  37  71 E3        30.21S
RIFLE          CLEAR     54  40  59 CALM      30.08S
DELTA          CLEAR     60  42  52 CALM      30.07S HAZE
NUCLA          CLEAR     55  43  62 E6        30.16S
$$

COZ017>023-064>068-181000-
...SOUTHWEST COLORADO...

CITY           SKY/WX    TMP DP  RH WIND       PRES   REMARKS
DURANGO        CLEAR     46  45  96 CALM      30.19S
CORTEZ         CLEAR     47  46  97 CALM      30.13F
PAGOSA SPRINGS CLEAR     45  41  86 CALM      30.25S
TELLURIDE      NOT AVBL
WOLF CREEK PAS CLEAR     45  32  61 SE5       30.52S
$$

COZ009-010-012-014-032>034-037-058>063-181000-
...CENTRAL COLORADO...

CITY           SKY/WX    TMP DP  RH WIND       PRES   REMARKS
ASPEN          CLEAR     47  35  63 VRB5      30.24S
BUENA VISTA    CLEAR     49  35  58 NW7       30.28S
COPPER MTN     CLEAR     52  28  40 S16       30.54F
BERTHOUD PASS  FAIR      43  41  93 SW8       30.59F
COTTONWOOD PAS CLEAR     57  32  38 W6        30.39F
GUNNISON       CLEAR     48  36  61 CALM      30.28F
KREMMLING      CLEAR     39  34  81 CALM      30.27S
LEADVILLE      CLEAR     41  31  67 CALM      30.39F
MONARCH PASS   CLEAR     45  32  61 E7        30.64S
SALIDA         CLEAR     51  38  59 W7        30.33F
SUNLIGHT       CLEAR     52  32  46 CALM      30.45F
WILKERSON PASS NOT AVBL
$$

COZ069>075-181000-
...SAN LUIS VALLEY/SANGRE DE CRISTO MOUNTAINS...

CITY           SKY/WX    TMP DP  RH WIND       PRES   REMARKS
ALAMOSA        CLEAR     43  39  86 CALM      30.24S
LA VETA PASS   NOT AVBL
SAGUACHE       PTCLDY    45  34  65 NW10      30.28S
$$

COZ035-036-038>040-181000-
...NORTHERN COLORADO FRONT RANGE...

CITY           SKY/WX    TMP DP  RH WIND       PRES   REMARKS
DENVER INTL AP PTCLDY    64  42  44 SW13      30.06F
DMNS CITY PARK   N/A     61  44  54 S7G13     30.05F
AURORA         PTCLDY    61  43  50 S7        30.08F
FRONT RANGE AP CLEAR     64  43  45 SW9       30.06F
ERIE MUNI ARPT CLEAR     51  46  81 CALM      30.04F
BOULDER MUN AP CLEAR     59  43  55 CALM      30.05S
CENTENNIAL     PTCLDY    56  43  61 SE6       30.09F
BROOMFIELD     CLEAR     63  39  42 SW3       30.08S
FORT COLLINS   CLEAR     54  45  71 N3        30.05S
LONGMONT       CLEAR     51  45  78 CALM      30.06S
$$

COZ041-046-047-076>085-087-088-181000-
...PIKES PEAK/PALMER DIVIDE AND SOUTHERN FOOTHILLS...

CITY           SKY/WX    TMP DP  RH WIND       PRES   REMARKS
COLO. SPRINGS  CLEAR     58  39  49 N10       30.12F
A. F. ACADEMY  CLEAR     50  39  66 N10       30.15S
ELLICOTT       NOT AVBL
FALCON         CLEAR     59  38  46 N8        30.17F
FORT CARSON    CLEAR     58  41  53 NW13      30.09S
LIMON          CLEAR     53  42  66 NW3       30.07S
MONUMENT HILL  CLEAR     48  37  66 SW6       30.17F
TRINIDAD       CLEAR     58  43  57 W16       30.08F
$$

COZ042>045-048>051-090-091-181000-
...NORTHEAST COLORADO...

CITY           SKY/WX    TMP DP  RH WIND       PRES   REMARKS
GREELEY ARPT   CLEAR     50  41  71 CALM      30.03S
AKRON          CLEAR     58  45  62 W8        30.01F
BURLINGTON     PTCLDY    56  53  90 S3        29.98F
WRAY           CLOUDY   N/A N/A N/A E3        29.97F
STERLING       CLEAR     52  50  93 W5        29.97F
HOLYOKE        CLOUDY    66  63  88 SE8       29.97F FOG
FORT MORGAN    CLEAR     55  45  68 W5        30.02R
$$

COZ086-089-092>099-181000-
...SOUTHEAST COLORADO...

CITY           SKY/WX    TMP DP  RH WIND       PRES   REMARKS
PUEBLO         CLEAR     58  40  51 W5        30.01F
LA JUNTA       CLEAR     57  44  62 W5        29.98S
LAMAR          CLEAR     51  49  92 S7        29.94F
SPRINGFIELD      N/A     57  53  86 SW9       30.00S
$$



USA.gov is the U.S. government's official web portal to all federal, state and local government web resources and services.